Date String (YYYY-MM-DD hh:mm:ss) UTC,Instrument flags,Ambient pressure (hPa),Sample flow (lpm),Bypass flow (lpm),Sample temperature (°C),Ambient temperature (°C),ASC tube jacket temperature (°C),LED temperature (°C),Box temperature (°C),Sample RH (%),Span deviation,Mass concentration (μg/m³),Mass concentration (μg/m³),Mass concentration (μg/m³)
DateTimeUTC,F1_M11,P_M11,Q1_M11,Q2_M11,T1_M11,T2_M11,T3_M11,T4_M11,T5_M11,U1_M11,ZSPAN_M11,X2_M11,X0_M11,X1_M11
2021-12-19 13:00:00,,0824.1,4.99,0.00,22.6,22.2,00.0,31.5,24.2,05.8,0000.0,0000.62,0001.01,0000.48
2021-12-19 13:01:00,,0824.1,5.01,0.00,22.6,22.1,00.0,31.5,24.2,05.7,0000.0,0000.58,0000.88,0000.48
2021-12-19 13:02:00,,0824.2,4.99,0.00,22.6,22.0,00.0,31.5,24.2,05.7,0000.0,0000.57,0000.86,0000.47
2021-12-19 13:03:00,,0824.3,5.01,0.00,22.5,21.9,00.0,31.5,24.2,05.7,0000.0,0000.58,0000.89,0000.47
2021-12-19 13:04:00,,0824.2,4.99,0.00,22.5,21.9,00.0,31.5,24.2,05.6,0000.0,0000.58,0000.86,0000.46
2021-12-19 13:05:00,,0824.2,5.01,0.00,22.5,21.9,00.0,31.5,24.2,05.6,0000.0,0000.57,0000.84,0000.46
2021-12-19 13:06:00,,0824.3,5.00,0.00,22.5,21.8,00.0,31.5,24.2,05.5,0000.0,0000.57,0000.84,0000.46
2021-12-19 13:07:00,,0824.2,4.99,0.00,22.5,21.8,00.0,31.5,24.2,05.4,0000.0,0000.57,0000.86,0000.45
2021-12-19 13:08:00,,0824.2,4.99,0.00,22.5,21.7,00.0,31.5,24.1,05.4,0000.0,0000.59,0000.93,0000.45
2021-12-19 13:09:00,,0824.4,5.00,0.00,22.5,21.7,00.0,31.5,24.1,05.4,0000.0,0000.59,0000.91,0000.45
2021-12-19 13:10:00,,0824.3,5.01,0.00,22.5,21.7,00.0,31.5,24.2,05.4,0000.0,0000.58,0000.88,0000.45
2021-12-19 13:11:00,,0824.3,4.99,0.00,22.5,21.7,00.0,31.5,24.2,05.4,0000.0,0000.59,0001.15,0000.45
2021-12-19 13:12:00,,0824.3,4.99,0.00,22.5,21.7,00.0,31.5,24.1,05.3,0000.0,0000.61,0001.25,0000.46
2021-12-19 13:13:00,,0824.3,5.00,0.00,22.5,21.7,00.0,31.5,24.1,05.5,0000.0,0000.62,0001.28,0000.46
2021-12-19 13:14:00,,0824.3,5.01,0.00,22.5,21.7,00.0,31.5,24.2,05.5,0000.0,0000.64,0001.31,0000.46
2021-12-19 13:15:00,,0824.3,4.99,0.00,22.4,21.7,00.0,31.5,24.1,05.4,0000.0,0000.63,0001.25,0000.47
2021-12-19 13:16:00,,0824.4,5.00,0.00,22.4,21.7,00.0,31.5,24.1,05.4,0000.0,0000.62,0001.23,0000.47
2021-12-19 13:17:00,,0824.5,5.01,0.00,22.4,21.7,00.0,31.5,24.1,05.3,0000.0,0000.62,0001.24,0000.46
2021-12-19 13:18:00,,0824.5,5.00,0.00,22.4,21.7,00.0,31.5,24.1,05.3,0000.0,0000.62,0001.22,0000.47
2021-12-19 13:19:00,,0824.5,4.99,0.00,22.4,21.7,00.0,31.4,24.1,05.3,0000.0,0000.61,0001.17,0000.48
2021-12-19 13:20:00,,0824.4,5.01,0.00,22.4,21.7,00.0,31.4,24.2,05.3,0000.0,0000.62,0001.20,0000.49
2021-12-19 13:21:00,,0824.5,5.01,0.00,22.4,21.7,00.0,31.4,24.2,05.3,0000.0,0000.64,0001.27,0000.49
2021-12-19 13:22:00,,0824.4,4.99,0.00,22.4,21.7,00.0,31.4,24.2,05.3,0000.0,0000.65,0001.11,0000.49
2021-12-19 13:23:00,,0824.6,5.01,0.00,22.5,21.7,00.0,31.4,24.2,05.3,0000.0,0000.69,0001.06,0000.51
2021-12-19 13:24:00,,0824.5,4.99,0.00,22.5,21.7,00.0,31.4,24.2,05.4,0000.0,0000.72,0001.11,0000.54
2021-12-19 13:25:00,,0824.4,5.01,0.00,22.4,21.7,00.0,31.4,24.2,05.3,0000.0,0000.77,0001.66,0000.57
2021-12-19 13:26:00,,0824.6,4.99,0.00,22.5,21.7,00.0,31.4,24.2,05.4,0000.0,0000.84,0002.16,0000.58
2021-12-19 13:27:00,,0824.5,5.01,0.00,22.5,21.8,00.0,31.4,24.2,05.4,0000.0,0000.95,0002.50,0000.62
2021-12-19 13:28:00,,0824.6,5.00,0.00,22.5,22.2,00.0,31.5,24.3,05.4,0000.0,0000.99,0002.77,0000.65
2021-12-19 13:29:00,,0824.6,5.00,0.00,22.6,23.0,00.0,31.5,24.5,05.4,0000.0,0001.06,0003.28,0000.68
2021-12-19 13:30:00,,0824.7,4.99,0.00,22.8,23.6,00.0,31.5,24.8,05.4,0000.0,0001.15,0003.92,0000.71
2021-12-19 13:31:00,,0824.5,5.00,0.00,22.8,23.5,00.0,31.6,24.8,05.3,0000.0,0001.25,0004.38,0000.73
2021-12-19 13:32:00,,0824.4,5.01,0.00,22.9,23.3,00.0,31.6,24.8,05.2,0000.0,0001.28,0004.42,0000.74
2021-12-19 13:33:00,,0824.4,5.00,0.00,22.9,23.0,00.0,31.6,24.8,05.1,0000.0,0001.33,0004.50,0000.75
2021-12-19 13:34:00,,0824.4,5.01,0.00,22.9,22.9,00.0,31.7,24.7,05.0,0000.0,0001.35,0004.60,0000.75
2021-12-19 13:35:00,,0824.4,4.99,0.00,22.9,22.7,00.0,31.7,24.7,05.0,0000.0,0001.34,0004.64,0000.73
2021-12-19 13:36:00,,0824.4,5.01,0.00,22.9,22.6,00.0,31.7,24.7,05.0,0000.0,0001.34,0004.29,0000.73
2021-12-19 13:37:00,,0824.6,4.99,0.00,22.9,22.5,00.0,31.7,24.7,05.1,0000.0,0001.32,0003.97,0000.74
2021-12-19 13:38:00,,0824.6,5.01,0.00,22.9,22.4,00.0,31.7,24.7,05.0,0000.0,0001.27,0003.90,0000.72
2021-12-19 13:39:00,,0824.5,4.98,0.00,22.9,22.4,00.0,31.7,24.7,04.9,0000.0,0001.25,0003.67,0000.71
2021-12-19 13:40:00,,0824.8,5.02,0.00,22.9,22.3,00.0,31.7,24.7,04.9,0000.0,0001.25,0003.71,0000.70
2021-12-19 13:41:00,,0824.6,4.99,0.00,22.9,22.3,00.0,31.7,24.7,04.9,0000.0,0001.28,0003.85,0000.70
2021-12-19 13:42:00,,0824.5,5.01,0.00,22.9,22.3,00.0,31.7,24.7,04.9,0000.0,0001.27,0003.69,0000.70
2021-12-19 13:43:00,,0824.6,5.01,0.00,22.9,22.2,00.0,31.7,24.7,04.8,0000.0,0001.26,0003.69,0000.72
2021-12-19 13:44:00,,0824.8,4.99,0.00,22.9,22.2,00.0,31.8,24.7,04.7,0000.0,0001.27,0003.74,0000.72
2021-12-19 13:45:00,,0824.7,5.01,0.00,22.9,22.2,00.0,31.8,24.6,04.8,0000.0,0001.27,0003.68,0000.73
2021-12-19 13:46:00,,0824.6,5.00,0.00,22.8,22.2,00.0,31.8,24.6,04.7,0000.0,0001.29,0003.67,0000.75
2021-12-19 13:47:00,,0824.5,5.01,0.00,22.8,22.2,00.0,31.8,24.6,04.6,0000.0,0001.32,0003.65,0000.77
2021-12-19 13:48:00,,0824.7,5.00,0.00,22.8,22.1,00.0,31.7,24.6,04.6,0000.0,0001.32,0003.52,0000.77
2021-12-19 13:49:00,,0824.5,4.99,0.00,22.8,22.1,00.0,31.7,24.6,04.6,0000.0,0001.31,0003.32,0000.77
2021-12-19 13:50:00,,0824.5,5.02,0.00,22.8,22.1,00.0,31.7,24.6,04.6,0000.0,0001.32,0003.33,0000.77
2021-12-19 13:51:00,,0824.4,4.99,0.00,22.8,22.1,00.0,31.7,24.6,04.5,0000.0,0001.27,0002.82,0000.75
2021-12-19 13:52:00,,0824.6,5.01,0.00,22.8,22.1,00.0,31.7,24.5,04.5,0000.0,0001.17,0002.04,0000.72
2021-12-19 13:53:00,,0824.7,5.00,0.00,22.8,22.1,00.0,31.7,24.5,04.6,0000.0,0001.08,0002.23,0000.70
2021-12-19 13:54:00,,0824.8,5.01,0.00,22.8,22.0,00.0,31.7,24.5,04.5,0000.0,0001.09,0002.80,0000.69
2021-12-19 13:55:00,,0824.8,4.98,0.00,22.8,22.0,00.0,31.7,24.5,04.3,0000.0,0001.02,0003.03,0000.68
2021-12-19 13:56:00,,0824.4,5.00,0.00,22.8,22.0,00.0,31.7,24.5,04.2,0000.0,0000.97,0003.04,0000.66
2021-12-19 13:57:00,,0824.5,4.99,0.00,22.8,22.0,00.0,31.7,24.5,04.1,0000.0,0000.92,0002.96,0000.63
2021-12-19 13:58:00,,0824.6,5.00,0.00,22.7,22.0,00.0,31.7,24.5,04.2,0000.0,0000.84,0002.79,0000.59
2021-12-19 13:59:00,,0824.4,5.01,0.00,22.7,22.0,00.0,31.7,24.5,04.1,0000.0,0000.81,0002.80,0000.57
